This demonstration page uses our WeatherBlox Daily Observations layout. Learn more.

40.92945, -100.16068

Hourly Observations for December 23, 2017

Temp ( °F °C ) Dew Point ( °F °C ) Humidity (%) Winds ( mph kmh ) Pressure ( in mb ) Visibility ( mi km ) Precip ( " mm )
12:15 am 00:15 Cloudy 24 -4.3 19 -7.5 79 79 NNE 8 13 30.36 1028 10 16.09344 0 0
12:35 am 00:35 Cloudy 24 -4.5 18 -7.6 79 79 NNE 7 11 30.36 1028 10 16.09344 0 0
12:55 am 00:55 Cloudy 24 -4.5 18 -7.6 79 79 NNE 5 7 30.36 1028 10 16.09344 0 0
1:15 am 01:15 Cloudy 24 -4.5 18 -7.6 79 79 Calm 30.36 1028 10 16.09344 0 0
1:35 am 01:35 Cloudy 24 -4.4 19 -7.5 79 79 NNE 5 7 30.36 1028 10 16.09344 0 0
1:55 am 01:55 Cloudy 24 -4.4 19 -7.5 79 79 N 3 6 30.36 1028 10 16.09344 0 0
2:15 am 02:15 Cloudy 24 -4.3 19 -7.5 79 79 Calm 30.36 1028 10 16.09344 0 0
2:35 am 02:35 Cloudy 24 -4.3 19 -7.3 80 80 N 3 6 30.36 1028 10 16.09344 0 0
2:55 am 02:55 Cloudy 24 -4.5 18 -7.8 78 78 NNE 8 13 30.36 1028 10 16.09344 0 0
3:15 am 03:15 Cloudy 23 -4.8 17 -8.5 76 76 N 10 17 30.36 1028 10 16.09344 0 0
3:35 am 03:35 Cloudy 23 -5 17 -8.6 76 76 N 9 15 30.36 1028 10 16.09344 0 0
3:55 am 03:55 Cloudy 23 -5 17 -8.6 76 76 N 8 13 30.36 1028 10 16.09344 0 0
4:15 am 04:15 Cloudy 23 -5 16 -8.7 76 76 NNE 10 17 30.33 1027 10 16.09344 0 0
4:35 am 04:35 Cloudy 23 -5.1 16 -8.7 76 76 NNE 9 15 30.33 1027 10 16.09344 0 0
4:55 am 04:55 Cloudy 23 -5.2 16 -8.7 77 77 NNE 8 13 30.33 1027 10 16.09344 0 0
5:15 am 05:15 Cloudy 22 -5.3 16 -8.7 77 77 NNE 8 13 30.33 1027 10 16.09344 0 0
5:35 am 05:35 Cloudy 21 -5.9 15 -9.4 77 77 NE 10 17 30.33 1027 10 16.09344 0 0
5:55 am 05:55 Cloudy 21 -6.3 15 -9.5 78 78 NE 12 19 30.36 1028 10 16.09344 0 0
6:15 am 06:15 Cloudy 20 -6.7 14 -9.9 78 78 NE 12 19 30.36 1028 10 16.09344 0 0
6:35 am 06:35 Cloudy 19 -7.1 14 -10.2 79 79 NE 9 15 30.39 1029 10 16.09344 0 0
6:55 am 06:55 Cloudy 19 -7.4 13 -10.3 80 80 ENE 9 15 30.39 1029 10 16.09344 0 0
7:15 am 07:15 Cloudy 18 -7.7 13 -10.6 80 80 ENE 10 17 30.39 1029 10 16.09344 0 0
7:35 am 07:35 Cloudy 18 -7.9 12 -11 79 79 NE 10 17 30.39 1029 10 16.09344 0 0
7:55 am 07:55 Cloudy 17 -8.3 11 -11.6 77 77 NE 8 13 30.39 1029 10 16.09344 0 0
8:15 am 08:15 Cloudy with Light Snow 17 -8.5 11 -11.6 79 79 NE 7 11 30.39 1029 4 6.437376 0 0
8:35 am 08:35 Cloudy with Light Snow 17 -8.5 11 -11.4 80 80 NE 6 9 30.39 1029 3 4.828032 0 0
8:55 am 08:55 Cloudy with Light Snow 17 -8.5 11 -11.5 79 79 ENE 5 7 30.39 1029 4 6.437376 0 0
9:15 am 09:15 Cloudy with Light Snow 17 -8.5 11 -11.4 80 80 ENE 5 7 30.42 1030 4 6.437376 0 0
9:35 am 09:35 Cloudy with Light Snow 17 -8.5 11 -11.5 79 79 NE 6 9 30.42 1030 10 16.09344 0 0
9:55 am 09:55 Cloudy 17 -8.3 11 -11.5 78 78 NE 5 7 30.42 1030 10 16.09344 0 0
10:15 am 10:15 Cloudy with Light Snow 17 -8.1 12 -11.3 78 78 NE 5 7 30.45 1031 10 16.09344 0 0
10:35 am 10:35 Cloudy with Light Snow 18 -7.8 12 -11.1 77 77 NE 6 9 30.45 1031 10 16.09344 0 0
10:55 am 10:55 Cloudy with Light Snow 18 -7.7 12 -11.2 76 76 NE 8 13 30.45 1031 10 16.09344 0 0
11:15 am 11:15 Cloudy 18 -7.6 11 -11.8 72 72 NE 9 15 30.42 1030 10 16.09344 0 0
11:35 am 11:35 Cloudy with Light Snow 18 -7.6 11 -11.5 74 74 NE 8 13 30.42 1030 5 8.04672 0 0
11:55 am 11:55 Cloudy with Light Snow 19 -7.5 12 -11 76 76 NE 7 11 30.42 1030 2 3.218688 0 0
12:15 pm 12:15 Cloudy with Light Snow 19 -7.2 13 -10.5 78 78 ENE 8 13 30.39 1029 2.5 4.02336 0 0
12:35 pm 12:35 Cloudy with Light Snow 20 -6.9 13 -10.3 77 77 ENE 7 11 30.39 1029 7 11.265408 0 0
12:55 pm 12:55 Cloudy with Light Snow 20 -6.6 14 -10.1 76 76 ENE 6 9 30.33 1027 10 16.09344 0 0
1:15 pm 13:15 Cloudy with Light Snow 20 -6.5 14 -10.1 76 76 E 6 9 30.33 1027 10 16.09344 0 0
1:35 pm 13:35 Cloudy with Light Snow 21 -6.2 14 -9.8 76 76 E 3 6 30.33 1027 10 16.09344 0 0
1:55 pm 13:55 Cloudy 21 -6.1 15 -9.7 76 76 ESE 7 11 30.3 1026 10 16.09344 0 0
2:15 pm 14:15 Cloudy 22 -5.7 15 -9.5 75 75 SE 6 9 30.3 1026 10 16.09344 0 0
2:35 pm 14:35 Cloudy 21 -6 15 -9.5 77 77 ESE 7 11 30.3 1026 10 16.09344 0 0
2:55 pm 14:55 Cloudy 22 -5.7 15 -9.2 77 77 ESE 7 11 30.27 1025 10 16.09344 0 0
3:15 pm 15:15 Cloudy with Light Snow 22 -5.7 15 -9.2 77 77 SE 6 9 30.27 1025 10 16.09344 0 0
3:35 pm 15:35 Cloudy with Light Snow 21 -5.9 16 -9.1 78 78 ESE 7 11 30.27 1025 5 8.04672 0 0
3:55 pm 15:55 Cloudy with Light Snow 22 -5.8 16 -9.1 78 78 ESE 6 9 30.3 1026 5 8.04672 0 0
4:15 pm 16:15 Cloudy with Light Snow 21 -6 17 -8.5 83 83 E 7 11 30.27 1025 0.75 1.207008 0 0
4:35 pm 16:35 Cloudy with Light Snow 21 -6.2 17 -8.3 85 85 E 8 13 30.27 1025 1 1.609344 0 0
4:55 pm 16:55 Cloudy with Light Snow 21 -6.3 17 -8.3 86 86 E 8 13 30.27 1025 1.5 2.414016 0 0
5:15 pm 17:15 Cloudy with Light Snow 20 -6.5 17 -8.5 86 86 E 6 9 30.27 1025 1.25 2.01168 0 0
5:35 pm 17:35 Cloudy with Light Snow 20 -6.5 17 -8.4 87 87 E 9 15 30.27 1025 2.5 4.02336 0 0
5:55 pm 17:55 Cloudy with Light Snow 20 -6.6 17 -8.5 87 87 E 9 15 30.27 1025 3 4.828032 0 0
6:15 pm 18:15 Cloudy with Light Snow 20 -6.7 17 -8.5 87 87 E 8 13 30.27 1025 2 3.218688 0 0
6:35 pm 18:35 Cloudy with Snow 20 -6.8 17 -8.6 87 87 ENE 10 17 30.3 1026 1.25 2.01168 0 0
6:55 pm 18:55 Cloudy with Snow 19 -7.1 16 -9 86 86 NE 13 20 30.27 1025 1 1.609344 0 0
7:15 pm 19:15 Cloudy with Snow 19 -7.4 15 -9.2 87 87 ENE 12 19 30.33 1027 0.75 1.207008 0 0
7:35 pm 19:35 Cloudy with Snow 18 -7.6 15 -9.5 86 86 NE 10 17 30.33 1027 0.5 0.804672 0 0
7:55 pm 19:55 Cloudy with Light Snow 18 -7.7 15 -9.5 87 87 NE 8 13 30.33 1027 1.75 2.816352 0.01 0.254
8:15 pm 20:15 Cloudy with Light Snow 18 -7.9 15 -9.7 87 87 NE 8 13 30.36 1028 0.5 0.804672 0 0
8:35 pm 20:35 Cloudy with Light Snow 18 -8 14 -9.8 87 87 NNE 5 7 30.36 1028 1.25 2.01168 0 0
8:55 pm 20:55 Cloudy with Snow 18 -8 15 -9.7 88 88 NNE 3 6 30.39 1029 0.75 1.207008 0 0
9:15 pm 21:15 Cloudy with Heavy Snow 17 -8.1 15 -9.7 88 88 Calm 30.39 1029 0.5 0.804672 0 0
9:35 pm 21:35 Cloudy with Snow 17 -8.1 15 -9.7 88 88 N 5 7 30.42 1030 0.5 0.804672 0 0
9:55 pm 21:55 Cloudy with Snow 17 -8.1 15 -9.7 88 88 N 5 7 30.42 1030 0.75 1.207008 0.02 0.508
10:15 pm 22:15 Cloudy with Light Snow 17 -8.3 14 -10 88 88 NNE 6 9 30.42 1030 1.25 2.01168 0.01 0.254
10:35 pm 22:35 Cloudy with Light Snow 17 -8.5 13 -10.3 87 87 NNE 7 11 30.42 1030 1.25 2.01168 0.02 0.508
10:55 pm 22:55 Cloudy with Light Snow 17 -8.5 14 -10.2 88 88 N 7 11 30.42 1030 1.25 2.01168 0.03 0.762
11:15 pm 23:15 Cloudy with Light Snow 17 -8.5 13 -10.3 87 87 NNE 7 11 30.42 1030 1.5 2.414016 0 0
11:35 pm 23:35 Cloudy with Light Snow 17 -8.5 13 -10.3 87 87 N 8 13 30.42 1030 2 3.218688 0.01 0.254
11:55 pm 23:55 Cloudy with Light Snow 17 -8.5 14 -10.2 88 88 N 7 11 30.45 1031 1.5 2.414016 0.01 0.254

Powered by AerisWeather